This is the latest recevied weather packets stored in our database for station/object HB9FSE-WX. If no packets are shown the sender has not sent any weather packets the latest 10 day(s).
| Time | Temp. | Humidity | Pressure | Rain* | Wind** | Luminosity | Snow |
|---|---|---|---|---|---|---|---|
| 1778147794 | 22.22° C | 37% | 1015.4 hPa | - | - | - | - |
| 1778146894 | 21.11° C | 38% | 1015.6 hPa | - | - | - | - |
| 1778145994 | 21.11° C | 38% | 1015.5 hPa | - | - | - | - |
| 1778145094 | 21.11° C | 38% | 1015.4 hPa | - | - | - | - |
| 1778144194 | 21.11° C | 38% | 1015.3 hPa | - | - | - | - |
| 1778143294 | 21.11° C | 39% | 1015.2 hPa | - | - | - | - |
| 1778142393 | 21.67° C | 37% | 1015.3 hPa | - | - | - | - |
| 1778141493 | 22.22° C | 37% | 1015.1 hPa | - | - | - | - |
| 1778140593 | 23.33° C | 37% | 1015.1 hPa | - | - | - | - |
| 1778139693 | 23.33° C | 38% | 1015 hPa | - | - | - | - |
| 1778138793 | 22.78° C | 39% | 1015 hPa | - | - | - | - |
| 1778137893 | 22.78° C | 39% | 1015 hPa | - | - | - | - |
| 1778136993 | 22.78° C | 39% | 1014.8 hPa | - | - | - | - |
| 1778136092 | 22.22° C | 39% | 1014.7 hPa | - | - | - | - |
| 1778134307 | 22.22° C | 38% | 1014.5 hPa | - | - | - | - |
| 1778133407 | 22.22° C | 38% | 1014.4 hPa | - | - | - | - |
| 1778132507 | 21.67° C | 38% | 1014.4 hPa | - | - | - | - |
| 1778131607 | 21.67° C | 38% | 1014.3 hPa | - | - | - | - |
| 1778130707 | 22.22° C | 37% | 1014.1 hPa | - | - | - | - |
| 1778129807 | 22.78° C | 38% | 1013.8 hPa | - | - | - | - |
| 1778128907 | 22.78° C | 38% | 1013.7 hPa | - | - | - | - |
| 1778106392 | 23.33° C | 36% | 1012.1 hPa | - | - | - | - |
| 1778105492 | 23.33° C | 36% | 1012.1 hPa | - | - | - | - |
| 1778104592 | 22.78° C | 36% | 1012 hPa | - | - | - | - |
| 1778103692 | 22.78° C | 36% | 1011.9 hPa | - | - | - | - |
* Rain since midnight (hover to see other rain measurements)
** Current wind speed in m/s (hover to see current wind gust speed)